#timestamp,LO_Frequency,Hit,StdDev 
1639962015.5,286047000.9,N
1639962035.3,286047001.2,N
1639962055.1,286046999.0,N
1639962075.9,286046998.9,N
1639962095.7,286046999.2,N
1639962115.5,286046998.6,N
1639962135.4,286046998.8,N
1639962155.2,286046998.1,N
1639962175.0,286047000.7,N
1639962176.0,286047000.7,N
1639962195.8,286046999.4,N
1639962215.6,286047001.1,N
1639962235.5,286047001.2,N
1639962255.3,286046998.5,N
1639962275.1,286046998.7,N
1639962295.9,286047000.9,N
1639962315.7,286047001.0,N
1639962335.6,286046998.6,N
1639962355.4,286046998.6,N
1639962375.2,286047000.4,N
1639962395.1,286046998.8,N
1639962396.0,286046998.8,N
1639962415.8,286046997.0,N
1639962435.7,286046999.2,N
1639962455.5,286046998.8,N
1639962475.3,286047001.1,N
1639962495.2,286046997.4,N
1639962515.0,286046997.3,N
1639962515.9,286046997.3,N
1639962535.7,286046996.6,N
1639962555.6,286046996.5,N
1639962575.4,286046998.9,N
1639962595.3,286046998.9,N
1639962615.1,286047000.8,N
1639962616.0,286047000.8,N
1639962635.8,286046998.6,N
1639962655.7,286046998.2,N
1639962675.5,286046998.4,N
1639962695.3,286046999.4,N
1639962715.2,286046999.4,N
1639962735.0,286046999.2,N
1639962735.9,286046999.2,N
1639962755.8,286046996.8,N
1639962775.6,286046999.4,N
1639962795.4,286046998.9,N
1639962815.3,286046999.4,N
1639962835.1,286046997.3,N
1639962855.8,286046999.3,N
1639962875.7,286046996.5,N
1639962895.5,286046999.3,N
1639962915.4,286046998.5,N
1639962935.2,286047001.2,N
1639962955.0,286047000.7,N
1639962955.9,286047000.7,N
1639962975.8,286047000.4,N
1639962995.6,286046998.6,N
1639963015.4,286046997.4,N
1639963035.3,286046997.2,N
1639963055.1,286046996.7,N
1639963075.9,286046996.7,N
1639963095.7,286046999.2,N
1639963115.5,286046999.4,N
1639963135.4,286046996.5,N
1639963155.2,286046999.3,N
1639963175.0,286046998.6,N
1639963176.0,286046998.6,N
1639963195.8,286046998.6,N
1639963215.6,286046998.9,N
1639963235.5,286046998.6,N
1639963255.3,286046996.6,N
1639963275.1,286046999.2,N
1639963295.9,286046996.7,N
1639963315.7,286046996.5,N
1639963335.6,286046996.9,N
1639963355.4,286046999.0,N
1639963375.2,286046998.7,N
1639963395.1,286046996.7,N
1639963396.0,286046996.7,N
1639963415.8,286046997.5,N
1639963435.6,286046995.1,Y
1639963455.5,286046996.6,P
1639963475.3,286046997.7,N
1639963495.2,286046995.7,P
1639963515.9,286046994.9,Y
1639963535.7,286046999.9,P
1639963555.6,286047001.9,N
1639963575.4,286047001.8,N
1639963595.2,286047004.3,N
1639963615.1,286047001.4,N
1639963616.0,286047001.4,N
1639963635.8,286047003.9,N
1639963655.7,286047005.6,N
1639963675.5,286047003.2,N
1639963695.3,286047003.2,N
1639963715.2,286047001.4,N
1639963735.0,286047001.9,N
1639963735.9,286047001.9,N
1639963755.8,286047001.6,N
1639963775.6,286047004.0,N
1639963795.4,286047001.3,N
1639963815.3,286047003.4,N
1639963835.1,286047004.1,N
1639963855.8,286046999.8,N
1639963875.7,286047002.5,N
1639963895.5,286047004.2,N
1639963915.4,286047002.6,N
1639963935.2,286047002.6,N
1639963955.0,286047002.2,N
1639963955.9,286047002.2,N
1639963975.8,286047001.7,N
1639963995.6,286047003.7,N
1639964015.4,286047004.1,N
1639964035.3,286047004.1,N
1639964055.1,286047004.3,N
1639964075.9,286047003.0,N
1639964095.7,286047005.9,Y
1639964115.5,286047001.4,P
1639964135.4,286047002.1,P
1639964155.2,286046999.7,N
1639964175.0,286047002.6,N
1639964175.9,286047002.6,N
1639964195.8,286047001.9,N
1639964215.6,286047004.3,Y
1639964235.5,286047000.0,P
1639964255.3,286046999.2,N
1639964275.1,286047001.2,N
1639964295.9,286047000.4,N
1639964315.7,286047001.1,N
1639964335.6,286047002.8,Y
1639964355.4,286046999.9,P
1639964375.2,286047000.7,N
1639964395.1,286046998.2,P
1639964396.0,286046998.2,N
1639964415.8,286047000.9,N
1639964435.6,286047000.7,N
1639964455.5,286047000.0,N
1639964475.3,286046999.7,N
1639964495.2,286047000.5,N
1639964515.9,286047000.8,N
1639964535.7,286046999.0,N
1639964555.6,286046998.6,N
1639964575.4,286046998.3,N
1639964595.2,286046998.7,N
1639964615.1,286046998.5,N
1639964616.0,286046998.5,N
1639964635.8,286046998.1,N
1639964655.7,286046998.2,N
1639964675.5,286046998.1,N
1639964695.3,286046998.4,N
1639964715.2,286047000.9,N
1639964735.0,286047000.6,N
1639964735.9,286047000.6,N
1639964755.8,286047000.3,N
1639964775.6,286047000.4,N
1639964795.4,286047000.4,N
1639964815.3,286047000.3,N
1639964835.1,286047000.0,N
1639964855.8,286047001.2,N
1639964875.7,286047000.6,N
1639964895.5,286047000.5,N
1639964915.4,286047001.2,N
1639964935.2,286047000.7,N
1639964955.0,286046998.8,N
1639964955.9,286046998.8,N
1639964975.8,286046998.2,N
1639964995.6,286047000.8,N
1639965015.4,286047000.8,N
1639965035.3,286047000.7,N
1639965055.1,286046998.2,N
1639965075.9,286046998.4,N
1639965095.7,286046998.2,N
1639965115.5,286046998.4,N
1639965135.4,286046998.8,N
1639965155.2,286046998.7,N
1639965175.0,286047000.6,N
1639965176.0,286047000.6,N
1639965195.8,286046999.8,N
1639965215.6,286047000.2,N
1639965235.5,286047000.2,N
1639965255.3,286046998.3,N
1639965275.1,286046998.3,N
1639965295.9,286046999.0,N
1639965315.7,286046998.5,N
1639965335.6,286047000.4,N
1639965355.4,286047000.7,N
1639965375.2,286047001.0,N
1639965395.1,286047000.4,N
1639965396.0,286047000.4,N
1639965445.8,286047001.2,E
1639965455.7,286047000.8,N
1639965475.6,286046998.2,P
1639965495.4,286047000.8,N
1639965515.2,286046998.6,N
1639965535.1,286047000.4,N
1639965536.0,286047000.4,N
1639965555.8,286047002.3,N
1639965575.7,286046999.9,N
1639965595.5,286046998.5,N
